Weather History for Greenville, TX

Change the Weather History Date:

Saturday, February 22, 2014

  Actual Average Record
Temperature  
Mean Temperature 58 °F -  
Max Temperature 73 °F 57 °F 78 °F (2005)
Min Temperature 42 °F 42 °F 26 °F (2009)
Degree Days  
Heating Degree Days 8    
Growing Degree Days 8 (Base 50)    
Moisture  
Dew Point 35 °F    
Average Humidity 47    
Maximum Humidity 71    
Minimum Humidity 23    
Precipitation  
Precipitation 0.00 in - - ()
Sea Level Pressure  
Sea Level Pressure 29.94 in    
Wind  
Wind Speed 8 mph (South)    
Max Wind Speed 20 mph    
Max Gust Speed 29 mph    
Visibility 10 miles    
Events      
Averages and records for this station are not official NWS values.
T = Trace of Precipitation, MM = Missing Value Source: NWS Daily Summary

Daily Weather History Graph

Daily Weather History Graph

Search for Another Location

Airport:

Trip Planner

Search our weather history database for the weather conditions in past years. The results will help you decide how hot, cold, wet, or windy it might be!

Date:

Astronomy

Feb. 22, 2014 Rise Set
Actual Time 7:00 AM CST 6:15 PM CST
Civil Twilight 6:35 AM CST 6:40 PM CST
Nautical Twilight 6:06 AM CST 7:09 PM CST
Astronomical Twilight 5:37 AM CST 7:38 PM CST
Moon 12:49 AM CST (2/22) 11:35 AM CST (2/22)
Length of Visible Light 12h 05m
Length of Day
11h 15m
Waning Gibbous, 50% of the Moon is Illuminated
Feb 22
Waning Gibbous
Mar 1
New
Mar 8
First Quarter
Mar 16
Full
Mar 23
Last Quarter

Hourly Weather History & Observations

Time (CST) Temp. Windchill Dew Point Humidity Pressure Visibility Wind Dir Wind Speed Gust Speed Precip Events Conditions
12:15 AM 44.6 °F 41.4 °F 33.8 °F 66% 30.04 in 10.0 mi SSE 5.8 mph - N/A   Clear
12:35 AM 44.6 °F 43.1 °F 32.0 °F 61% 30.03 in 10.0 mi SSE 3.5 mph - N/A   Clear
12:55 AM 46.4 °F 45.2 °F 32.0 °F 57% 30.03 in 10.0 mi SSE 3.5 mph - N/A   Clear
1:15 AM 44.6 °F 42.2 °F 33.8 °F 66% 30.03 in 10.0 mi SSE 4.6 mph - N/A   Clear
1:35 AM 46.4 °F 44.3 °F 33.8 °F 62% 30.03 in 10.0 mi South 4.6 mph - N/A   Clear
1:55 AM 46.4 °F 44.3 °F 33.8 °F 62% 30.03 in 10.0 mi SSE 4.6 mph - N/A   Clear
2:15 AM 46.4 °F 44.3 °F 32.0 °F 57% 30.02 in 10.0 mi SSE 4.6 mph - N/A   Clear
2:35 AM 46.4 °F 44.3 °F 32.0 °F 57% 30.02 in 10.0 mi SSE 4.6 mph - N/A   Clear
2:55 AM 48.2 °F - 32.0 °F 54% 30.02 in 10.0 mi SSE 5.8 mph - N/A   Clear
3:15 AM 48.2 °F - 32.0 °F 54% 30.01 in 10.0 mi SSE 5.8 mph - N/A   Clear
3:35 AM 48.2 °F - 32.0 °F 54% 30.01 in 10.0 mi SSE 5.8 mph - N/A   Clear
3:55 AM 48.2 °F - 32.0 °F 54% 30.00 in 10.0 mi South 5.8 mph - N/A   Clear
4:15 AM 48.2 °F - 33.8 °F 58% 30.00 in 10.0 mi South 5.8 mph - N/A   Clear
4:35 AM 48.2 °F - 32.0 °F 54% 30.00 in 10.0 mi South 4.6 mph - N/A   Clear
4:55 AM 48.2 °F - 32.0 °F 54% 30.01 in 10.0 mi South 5.8 mph - N/A   Clear
5:15 AM 50.0 °F - 32.0 °F 50% 30.01 in 10.0 mi South 5.8 mph - N/A   Clear
5:35 AM 50.0 °F - 32.0 °F 50% 30.01 in 10.0 mi South 5.8 mph - N/A   Clear
5:55 AM 48.2 °F - 32.0 °F 54% 30.01 in 10.0 mi South 6.9 mph - N/A   Clear
6:15 AM 46.4 °F 42.4 °F 32.0 °F 57% 30.01 in 10.0 mi South 8.1 mph - N/A   Clear
6:35 AM 44.6 °F 40.7 °F 32.0 °F 61% 30.01 in 10.0 mi South 6.9 mph - N/A   Clear
6:55 AM 42.8 °F 39.3 °F 32.0 °F 66% 30.02 in 10.0 mi South 5.8 mph - N/A   Clear
7:15 AM 42.8 °F 39.3 °F 32.0 °F 66% 30.02 in 10.0 mi SSE 5.8 mph - N/A   Clear
7:35 AM 44.6 °F 41.4 °F 33.8 °F 66% 30.01 in 10.0 mi SSE 5.8 mph - N/A   Clear
7:55 AM 48.2 °F - 33.8 °F 58% 30.02 in 10.0 mi SSE 5.8 mph - N/A   Clear
8:15 AM 50.0 °F - 33.8 °F 54% 30.02 in 10.0 mi SSE 8.1 mph - N/A   Clear
8:35 AM 51.8 °F - 32.0 °F 47% 30.02 in 10.0 mi South 11.5 mph - N/A   Clear
8:55 AM 53.6 °F - 32.0 °F 44% 30.02 in 10.0 mi South 11.5 mph - N/A   Clear
9:15 AM 55.4 °F - 32.0 °F 41% 30.02 in 10.0 mi South 10.4 mph - N/A   Clear
9:35 AM 59.0 °F - 33.8 °F 39% 30.02 in 10.0 mi South 11.5 mph - N/A   Clear
9:55 AM 60.8 °F - 33.8 °F 36% 30.01 in 10.0 mi South 10.4 mph - N/A   Clear
10:15 AM 62.6 °F - 33.8 °F 34% 30.01 in 10.0 mi South 16.1 mph - N/A   Clear
10:35 AM 64.4 °F - 33.8 °F 32% 30.00 in 10.0 mi South 16.1 mph - N/A   Clear
10:55 AM 64.4 °F - 33.8 °F 32% 29.99 in 10.0 mi South 16.1 mph 21.9 mph N/A   Clear
11:15 AM 66.2 °F - 37.4 °F 35% 29.99 in 10.0 mi South 13.8 mph 19.6 mph N/A   Clear
11:35 AM 68.0 °F - 35.6 °F 30% 29.98 in 10.0 mi South 15.0 mph 20.7 mph N/A   Clear
11:55 AM 68.0 °F - 32.0 °F 26% 29.97 in 10.0 mi SSW 16.1 mph 26.5 mph N/A   Clear
12:15 PM 69.8 °F - 32.0 °F 25% 29.95 in 10.0 mi SSW 18.4 mph 25.3 mph N/A   Clear
12:35 PM 69.8 °F - 32.0 °F 25% 29.94 in 10.0 mi SSW 16.1 mph 23.0 mph N/A   Clear
12:55 PM 71.6 °F - 32.0 °F 23% 29.92 in 10.0 mi South 17.3 mph 26.5 mph N/A   Clear
1:15 PM 71.6 °F - 32.0 °F 23% 29.90 in 10.0 mi South 17.3 mph 25.3 mph N/A   Clear
1:35 PM 71.6 °F - 32.0 °F 23% 29.89 in 10.0 mi SSE 18.4 mph 24.2 mph N/A   Clear
1:55 PM 71.6 °F - 33.8 °F 25% 29.88 in 10.0 mi South 16.1 mph 19.6 mph N/A   Clear
2:15 PM 71.6 °F - 35.6 °F 27% 29.87 in 10.0 mi SSE 13.8 mph 24.2 mph N/A   Clear
2:35 PM 71.6 °F - 35.6 °F 27% 29.86 in 10.0 mi South 15.0 mph 18.4 mph N/A   Clear
2:55 PM 73.4 °F - 35.6 °F 25% 29.85 in 10.0 mi South 17.3 mph 24.2 mph N/A   Clear
3:15 PM 73.4 °F - 33.8 °F 23% 29.85 in 10.0 mi South 16.1 mph 21.9 mph N/A   Clear
3:35 PM 73.4 °F - 33.8 °F 23% 29.85 in 10.0 mi South 17.3 mph 24.2 mph N/A   Clear
3:55 PM 73.4 °F - 33.8 °F 23% 29.84 in 10.0 mi South 19.6 mph - N/A   Clear
4:15 PM 73.4 °F - 33.8 °F 23% 29.84 in 10.0 mi South 18.4 mph 27.6 mph N/A   Clear
4:35 PM 71.6 °F - 35.6 °F 27% 29.84 in 10.0 mi SSW 17.3 mph 28.8 mph N/A   Clear
4:55 PM 71.6 °F - 35.6 °F 27% 29.84 in 10.0 mi South 12.7 mph 19.6 mph N/A   Clear
5:15 PM 69.8 °F - 37.4 °F 31% 29.84 in 10.0 mi South 15.0 mph 23.0 mph N/A   Clear
5:35 PM 69.8 °F - 37.4 °F 31% 29.84 in 10.0 mi South 16.1 mph 21.9 mph N/A   Clear
5:55 PM 68.0 °F - 37.4 °F 33% 29.85 in 10.0 mi South 6.9 mph 12.7 mph N/A   Clear
6:15 PM 64.4 °F - 39.2 °F 40% 29.85 in 10.0 mi South 8.1 mph - N/A   Clear
6:35 PM 62.6 °F - 41.0 °F 45% 29.86 in 10.0 mi South 4.6 mph - N/A   Clear
6:55 PM 62.6 °F - 39.2 °F 42% 29.86 in 10.0 mi South 4.6 mph - N/A   Clear
7:15 PM 59.0 °F - 41.0 °F 51% 29.86 in 10.0 mi SE 4.6 mph - N/A   Clear
7:35 PM 55.4 °F - 41.0 °F 58% 29.86 in 10.0 mi SE 6.9 mph - N/A   Clear
7:55 PM 57.2 °F - 41.0 °F 55% 29.87 in 10.0 mi SE 4.6 mph - N/A   Clear
8:15 PM 57.2 °F - 39.2 °F 51% 29.88 in 10.0 mi SE 3.5 mph - N/A   Clear
8:35 PM 55.4 °F - 39.2 °F 54% 29.88 in 10.0 mi SSE 4.6 mph - N/A   Clear
8:55 PM 55.4 °F - 41.0 °F 58% 29.89 in 10.0 mi SSE 3.5 mph - N/A   Clear
9:15 PM 53.6 °F - 41.0 °F 62% 29.89 in 10.0 mi SE 3.5 mph - N/A   Clear
9:35 PM 51.8 °F - 41.0 °F 67% 29.89 in 10.0 mi SE 3.5 mph - N/A   Clear
9:55 PM 53.6 °F - 41.0 °F 62% 29.90 in 10.0 mi SE 4.6 mph - N/A   Clear
10:15 PM 53.6 °F - 42.8 °F 67% 29.90 in 10.0 mi SSE 4.6 mph - N/A   Clear
10:35 PM 51.8 °F - 42.8 °F 71% 29.90 in 10.0 mi SSE 8.1 mph - N/A   Clear
10:55 PM 55.4 °F - 42.8 °F 63% 29.90 in 10.0 mi SSE 9.2 mph - N/A   Clear
11:15 PM 55.4 °F - 42.8 °F 63% 29.90 in 10.0 mi SSE 6.9 mph - N/A   Clear
11:35 PM 55.4 °F - 44.6 °F 67% 29.90 in 10.0 mi SSE 8.1 mph - N/A   Clear
11:55 PM 55.4 °F - 44.6 °F 67% 29.90 in 10.0 mi SSE 6.9 mph - N/A   Clear